Погода в Баотоу

Китай     40˚37′21″N   109˚49′51″E
темп.,
°C
ветер,
м/с
пор.,
м/с
влажн.,
%
обл.,
%
осадки,
мм/ч
давл.,
гПа
погр.,
м
16 января, сб
сб1623:00−10˚ссв4657100 0.0 1038264
02:00−11˚с4648100 0.0 1038239
05:00−12˚ссз3543100 0.0 1040209
08:00−13˚с344176 0.0 1042147
11:00−10˚сз37300 0.0 10451055
14:00−9˚сз69270 0.0 10421560
17:00−9˚зсз59323 0.0 10431311
20:00−11˚зсз35446 0.0 1045202
17 января, вс
вс1723:00−11˚з59490 0.0 1044286
02:00−12˚з714430 0.0 1040471
05:00−12˚з512440 0.0 1036405
08:00−13˚з510410 0.0 1034291
11:00−8˚з69310 0.0 1031672
14:00−5˚з69256 0.0 1025934
17:00−5˚зсз36240 0.0 1024238
20:00−8˚с22300 0.0 102623
18 января, пн
пн1823:00−9˚зсз23320 0.0 102725
02:00−10˚з22350 0.0 102730
05:00−11˚зсз12370 0.0 102522
08:00−11˚в12370 0.0 102421
11:00−7˚в45240 0.0 1023197
14:00−4˚в44210 0.0 1019281
17:00−4˚в35230 0.0 1019139
20:00−6˚в45280 0.0 102078
19 января, вт
вт1923:00−7˚в45320 0.0 101973
02:00−8˚в45360 0.0 101884
05:00−9˚в34390 0.0 101861
08:00−10˚в34430 0.0 101951
11:00−5˚в34320 0.0 1019164
14:00−2˚вюв11290 0.0 1017280
17:00−3˚св11340 0.0 101821
20:00−6˚ссз11400 0.0 102121
20 января, ср
ср2023:00−7˚ссз114347 0.0 102221
02:00−8˚с124960 0.0 102321
05:00−9˚зсз1250100 0.0 102421
08:00−9˚зюз234791 0.0 102626
11:00−4˚з232972 0.0 1027125
14:00−1˚з222359 0.0 1025392
17:00−2˚зюз342620 0.0 102690
20:00−5˚зюз333335 0.0 102740